Location: Bailleul
(50.3375°N, 2.8513°E)
Time: 05:26:44
(UTC+00:00)

Aureole 1 Rocket - Pass Details

Date: 19 April 2021
Orbit: 379 x 1372 km, 73.9° (Epoch: 09 May)

Event Time Altitude Azimuth Distance (km) Brightness Sun altitude
Exits shadow 22:33:16 76° 103° (ESE) 824 3.4 -26.1°
Drops below altitude 10° 22:37:54 10° 28° (NNE) 2,081 6.3 -26.3°
Sets 22:39:53 0° 26° (NNE) 2,867 7.1 -26.4°
